Location: Beetenbrück
(52.8113°N, 9.5946°E)
Time: 21:52:53
(UTC+00:00)

Cosmos 1315 Rocket - Pass Details

Date: 14 April 2026
Orbit: 490 x 510 km, 81.2° (Epoch: 12 May)

Event Time Altitude Azimuth Distance (km) Brightness Sun altitude
Exits shadow 21:15:40 23° 57° (ENE) 1,113 4.3 -22.0°
Drops below altitude 10° 21:17:38 10° 32° (NNE) 1,725 5.6 -22.1°
Sets 21:19:56 0° 22° (NNE) 2,611 6.8 -22.3°
